TimeMST,TemperatureF,Dew PointF,Humidity,Sea Level PressureIn,VisibilityMPH,Wind Direction,Wind SpeedMPH,Gust SpeedMPH,PrecipitationIn,Events,Conditions,WindDirDegrees,DateUTC
12:53 AM,36.0,8.1,31,29.76,10.0,South,3.5,-,N/A,,Clear,180,2012-12-14 07:53:00
1:53 AM,34.0,7.0,32,29.74,10.0,South,4.6,-,N/A,,Clear,170,2012-12-14 08:53:00
2:53 AM,37.0,7.0,29,29.70,10.0,SSE,8.1,-,N/A,,Clear,160,2012-12-14 09:53:00
3:53 AM,28.9,7.0,40,29.77,10.0,SSE,4.6,-,N/A,,Clear,160,2012-12-14 10:53:00
4:53 AM,30.0,8.1,40,29.76,10.0,East,4.6,-,N/A,,Clear,90,2012-12-14 11:53:00
5:53 AM,45.0,10.0,24,29.71,10.0,ESE,6.9,-,N/A,,Clear,120,2012-12-14 12:53:00
6:53 AM,30.9,9.0,40,29.78,10.0,SE,4.6,-,N/A,,Clear,130,2012-12-14 13:53:00
7:53 AM,32.0,10.9,42,29.77,10.0,Calm,Calm,-,N/A,,Clear,0,2012-12-14 14:53:00
8:53 AM,43.0,10.0,26,29.57,10.0,West,6.9,-,N/A,,Clear,260,2012-12-14 15:53:00
9:53 AM,44.1,12.9,28,29.60,10.0,WSW,3.5,-,N/A,,Clear,250,2012-12-14 16:53:00
10:53 AM,48.0,15.1,27,29.50,10.0,Calm,Calm,-,N/A,,Overcast,0,2012-12-14 17:53:00
11:53 AM,60.1,16.0,18,29.47,10.0,ESE,6.9,-,N/A,,Clear,120,2012-12-14 18:53:00
12:53 PM,43.0,9.0,25,29.44,10.0,East,18.4,-,N/A,,Mostly Cloudy,90,2012-12-14 19:53:00
1:53 PM,42.1,8.1,25,29.42,10.0,East,16.1,-,N/A,,Clear,90,2012-12-14 20:53:00
2:53 PM,41.0,9.0,27,29.39,10.0,East,11.5,-,N/A,,Mostly Cloudy,90,2012-12-14 21:53:00
3:53 PM,36.0,10.9,36,29.47,10.0,ENE,9.2,-,N/A,,Overcast,60,2012-12-14 22:53:00
4:53 PM,33.1,10.9,40,29.49,10.0,ENE,4.6,-,N/A,,Overcast,70,2012-12-14 23:53:00
5:53 PM,25.0,9.0,51,29.47,10.0,WNW,5.8,-,N/A,,Scattered Clouds,300,2012-12-15 00:53:00
6:53 PM,27.0,10.9,51,29.55,10.0,WNW,4.6,-,N/A,,Overcast,290,2012-12-15 01:53:00
7:53 PM,25.0,10.9,55,29.56,10.0,NNW,8.1,-,N/A,,Overcast,330,2012-12-15 02:53:00
8:53 PM,25.0,10.0,53,29.52,10.0,SSW,4.6,-,N/A,,Mostly Cloudy,210,2012-12-15 03:53:00
9:53 PM,19.9,10.0,65,29.58,10.0,SE,5.8,-,N/A,,Partly Cloudy,130,2012-12-15 04:53:00
10:53 PM,21.9,12.0,66,29.57,10.0,ESE,4.6,-,N/A,,Mostly Cloudy,120,2012-12-15 05:53:00
11:53 PM,24.1,15.1,69,29.51,10.0,ESE,4.6,-,N/A,,Overcast,120,2012-12-15 06:53:00